Dewpoint
57 48 47 37 21 19 18 19 34 38 44 48 49 49 46 50 46 45 65 66 67 66 66 66 67 65 65 64 63 62 62 62 62 62 61 62 62 62 63 65 68 69 70 70 70 70 70 69 69
50 48 39 30 17 12 12 24 34 40 46 50 51 51 50 51 56 61 63 66 65 64 62 61 63 62 62 61 61 60 61 61 60 60 60 61 61 60 60 60 63 66 67 68 67 66 66 68 69
50 40 30 20 14 13 14 28 36 45 48 48 47 49 52 53 58 59 63 63 62 60 59 59 62 61 60 60 60 59 60 60 59 60 60 60 59 60 60 59 61 62 62 62 61 61 62 62 64
43 37 28 16 12 13 16 32 42 46 44 44 46 46 48 53 59 60 61 59 57 56 56 59 60 60 59 59 59 60 60 60 60 59 59 59 60 60 59 59 59 59 58 57 58 60 61 61 62
40 34 19 18 15 12 19 37 46 44 44 43 45 45 50 49 57 60 58 54 53 54 54 54 59 59 59 59 59 59 59 59 59 59 59 59 60 60 60 59 60 61 60 59 60 60 60 61 61
34 29 14 14 14 15 32 40 44 40 41 41 40 47 50 50 59 57 53 50 49 48 46 48 56 58 58 58 59 58 58 59 59 59 58 58 58 59 60 60 60 60 61 61 60 60 59 59 59
32 23 15 14 14 23 33 41 40 39 39 39 42 44 43 53 56 52 50 49 49 48 46 46 46 51 57 57 58 58 58 58 58 57 57 56 56 57 58 59 59 59 59 59 59 59 59 58 58
36 24 17 16 13 18 39 38 37 37 37 40 37 34 43 52 50 49 50 50 48 48 48 47 47 47 47 49 57 57 57 57 56 56 54 53 51 53 55 55 56 57 57 57 58 58 57 57 56
35 24 16 17 18 23 37 35 32 34 37 33 34 36 42 51 48 48 49 49 48 47 47 48 47 47 47 47 50 54 55 54 51 50 51 51 46 48 48 53 54 55 55 55 55 55 54 53 50
36 23 17 24 27 33 35 35 33 33 33 32 35 38 46 48 47 47 47 47 46 46 48 47 48 48 47 45 49 50 49 49 48 46 46 44 46 48 48 50 51 51 52 50 51 50 49 49 45
34 21 25 31 33 34 34 32 31 33 33 33 34 39 47 48 47 46 45 45 45 46 47 47 48 50 48 48 49 49 49 48 47 45 45 45 46 47 47 46 47 47 50 46 45 42 42 44 44
28 29 30 31 32 32 32 31 31 32 31 29 34 41 47 47 46 46 45 43 43 46 47 48 47 49 49 49 48 50 47 47 46 46 45 45 46 48 46 45 46 46 45 44 43 39 34 34 33
28 29 28 30 31 30 30 31 30 25 29 32 38 42 46 46 46 45 45 44 43 45 47 47 46 48 49 49 50 51 48 47 47 46 45 44 45 46 45 43 42 41 42 38 35 33 29 29 28
29 29 28 28 28 28 30 28 29 24 32 36 39 40 43 43 43 44 44 42 42 44 46 46 45 46 48 48 49 51 51 50 48 46 44 42 42 42 42 39 36 33 34 30 27 29 29 28 29
29 28 29 28 27 27 29 28 28 24 31 35 36 39 41 42 42 41 41 39 40 44 45 44 44 45 45 47 48 49 51 51 49 47 44 40 38 37 35 33 31 31 32 30 29 29 30 31 30
27 29 27 26 26 26 29 31 25 23 28 32 34 36 39 39 38 38 38 38 40 43 44 44 42 44 43 45 47 47 49 50 50 47 45 40 36 35 32 29 28 29 30 29 28 29 30 31 31
26 20 24 26 25 26 27 25 24 22 25 28 31 31 33 36 35 35 36 36 38 41 44 44 45 44 43 44 45 47 49 49 49 48 46 42 37 34 31 29 29 29 30 29 30 29 30 31 31
20 21 24 27 24 24 24 20 22 22 22 26 26 27 27 27 29 28 30 34 39 43 44 44 45 44 44 46 46 47 48 48 48 48 47 43 39 36 34 31 30 30 30 30 29 30 30 32 31
22 21 20 23 24 23 25 19 21 22 24 23 22 21 20 19 22 34 31 35 43 44 45 44 45 44 45 45 44 43 43 46 47 48 48 46 42 38 38 35 31 30 29 29 29 30 30 30 31
24 23 23 21 25 18 21 20 19 24 25 26 25 23 21 21 26 37 38 40 43 44 45 45 44 44 45 46 46 45 45 45 46 48 47 47 44 41 39 38 35 33 32 31 30 32 31 31 32
22 25 21 22 24 22 19 16 17 22 29 32 33 33 31 29 29 36 38 40 44 44 45 44 44 45 45 46 46 46 46 46 46 45 46 46 44 44 42 40 37 36 35 33 33 32 31 31 32
18 23 21 24 24 22 19 17 14 16 24 30 31 33 33 33 34 37 38 41 44 45 45 45 45 45 46 46 46 46 45 44 44 44 45 45 44 44 43 43 40 38 37 36 35 30 34 34 32
23 25 22 21 22 21 16 18 4 17 18 23 29 32 35 36 37 38 39 42 43 45 46 45 42 42 44 47 47 47 46 46 46 45 45 45 45 44 43 43 42 41 39 38 37 36 34 33 33
28 22 20 19 20 31 21 20 3 10 14 22 28 31 35 37 40 41 42 42 40 39 39 39 38 38 39 42 45 46 47 46 45 45 45 45 45 45 44 43 43 42 41 40 39 39 37 35 33
24 22 32 29 35 20 23 26 16 12 19 24 29 30 34 37 39 40 39 36 34 36 37 35 36 37 39 40 42 43 45 45 45 45 45 45 45 45 45 44 44 43 42 42 41 39 38 36 35
20 18 33 23 19 16 21 30 18 20 20 24 30 31 35 38 38 37 34 33 33 34 33 33 34 35 37 42 43 44 44 45 45 45 45 45 44 44 44 44 43 43 42 41 41 40 39 38 37
23 24 18 21 20 24 22 20 18 20 20 24 30 34 35 35 34 32 32 31 31 32 32 32 32 32 34 37 39 40 41 42 43 43 43 42 42 40 40 42 42 42 42 42 41 40 39 38 37
22 22 17 21 28 11 14 8 22 20 22 24 30 32 33 32 32 31 31 31 31 32 33 32 31 32 33 34 34 35 35 36 37 37 36 36 35 36 37 37 38 38 39 39 39 40 39 38 38
21 20 16 15 14 7 0 12 20 21 24 24 26 32 32 31 32 31 30 31 32 32 32 32 31 30 30 30 28 26 25 26 24 23 24 25 26 26 26 27 28 28 29 31 33 35 36 36 37
25 20 15 11 11 13 10 12 15 20 24 26 26 30 33 31 32 31 30 30 31 30 30 29 27 24 24 22 20 21 22 23 22 22 23 23 23 24 25 25 24 24 24 25 25 27 29 30 31
Lifted_Index
5 6 7 7 5 3 2 3 4 3 2 1 1 1 1 1 1 1 0 -0 -0 -0 0 1 2 3 3 4 4 4 4 4 5 5 5 5 4 4 4 3 2 0 -0 -1 -1 -1 -1 -1 -1
6 7 8 7 4 3 2 3 3 3 2 1 1 1 1 1 1 1 1 0 0 1 1 2 3 4 5 5 6 6 6 6 6 6 6 6 6 6 5 5 3 2 1 1 1 1 0 -0 -1
7 7 7 6 3 2 3 3 3 2 1 1 1 1 2 2 1 1 1 1 1 2 2 3 4 6 7 7 7 7 7 7 7 7 7 7 7 7 6 6 5 4 4 4 3 3 2 2 1
7 8 7 4 3 3 3 3 2 1 1 0 1 1 2 2 2 1 1 1 2 3 3 4 6 7 7 8 7 7 7 7 7 7 7 7 7 7 6 6 6 6 5 5 5 5 4 3 3
8 8 5 3 2 3 4 3 2 1 0 0 0 1 2 2 2 1 1 2 3 4 5 6 7 8 8 8 8 8 8 8 8 8 8 7 7 7 6 6 6 6 6 5 5 5 5 4 4
8 7 5 3 2 3 4 3 2 1 0 0 0 1 2 2 2 2 2 3 4 6 7 9 10 9 9 9 8 8 8 8 8 8 8 8 8 8 7 7 6 6 6 5 5 5 5 5 5
8 7 5 3 3 3 4 3 2 1 0 0 1 1 2 3 2 2 3 4 6 8 10 11 12 11 10 10 9 9 9 9 9 9 10 10 10 9 9 8 7 7 6 6 6 6 6 6 7
8 7 5 4 3 3 4 3 2 1 1 1 2 2 3 3 3 3 4 5 7 9 11 12 12 12 12 11 11 10 10 10 11 11 12 12 12 11 11 10 9 8 8 8 7 7 7 8 8
8 7 6 5 4 4 4 3 2 1 1 2 3 4 5 4 3 4 5 6 7 9 11 12 12 12 12 12 12 11 11 11 12 12 13 13 13 13 12 12 11 10 9 9 9 9 9 9 10
8 7 6 6 5 5 4 3 2 2 2 3 4 5 6 5 4 5 6 6 8 10 11 12 12 12 12 12 12 12 12 12 13 13 14 14 13 13 13 13 13 11 10 10 10 10 11 10 10
9 8 8 7 6 5 4 3 3 2 3 4 5 6 6 5 5 5 6 7 8 10 11 12 12 12 12 12 12 12 12 12 13 13 14 14 13 13 13 13 13 11 10 10 10 11 11 11 11
9 9 8 7 6 5 4 4 3 3 4 4 6 6 6 6 6 6 7 8 9 10 11 12 12 12 12 12 12 12 12 12 13 14 14 14 13 13 13 13 13 11 10 10 11 12 12 12 12
10 9 8 7 6 5 4 4 4 4 4 5 6 7 7 7 7 7 8 9 10 10 11 11 12 12 12 12 12 12 12 12 13 14 14 14 14 14 14 14 14 13 13 13 13 13 13 13 14
9 9 8 6 6 5 4 4 4 4 5 6 6 7 7 7 8 8 9 10 10 10 10 11 12 12 13 12 12 12 12 12 13 13 15 15 15 15 15 15 15 15 15 16 16 16 16 16 16
8 8 7 6 6 5 5 4 4 5 5 6 7 7 8 8 8 9 9 10 10 10 10 11 12 13 13 13 12 12 12 12 12 13 15 16 16 16 16 16 16 17 17 18 18 18 17 17 17
7 6 6 6 6 6 5 5 5 5 6 6 7 7 8 8 9 9 10 11 11 10 11 11 12 13 13 13 13 12 12 12 12 13 15 16 16 16 16 16 17 18 18 18 18 18 17 17 17
6 6 6 6 6 6 6 5 5 6 6 6 7 7 8 8 9 9 10 11 11 11 11 11 12 12 13 13 13 13 12 12 12 13 14 15 16 16 16 16 17 18 18 18 17 17 17 17 17
6 5 5 6 6 6 6 6 6 6 6 7 7 7 8 8 9 10 11 11 11 11 11 11 12 12 12 13 13 13 12 12 12 13 14 15 15 15 16 16 17 17 17 17 16 16 16 16 16
5 5 5 5 6 6 6 6 6 6 6 7 7 7 8 8 9 10 11 11 11 11 11 11 12 12 12 13 13 13 12 12 12 13 13 14 15 15 15 15 16 16 16 16 16 16 15 15 15
5 5 5 5 5 6 6 6 6 6 7 7 7 7 8 8 9 10 10 11 11 11 11 11 12 12 12 13 13 13 13 12 13 13 13 14 15 15 15 15 15 15 15 15 15 15 15 15 15
5 5 5 5 5 5 5 5 5 6 6 7 7 7 8 8 9 9 10 11 11 11 11 12 12 12 12 13 13 12 12 12 13 13 13 13 14 14 14 14 15 15 15 15 15 15 15 15 15
5 5 5 5 5 4 4 4 5 5 6 6 6 7 8 8 9 10 10 11 11 11 12 12 12 12 12 12 12 12 12 12 12 12 13 13 13 13 13 14 14 14 14 14 14 14 15 15 15
5 5 5 5 5 4 4 4 4 5 5 5 6 6 7 9 10 10 11 11 11 12 12 12 12 13 13 12 12 12 12 12 12 12 12 12 11 12 12 13 13 14 14 14 14 14 14 14 15
5 5 4 4 4 3 4 4 3 4 4 5 5 6 8 9 10 11 11 11 12 12 12 13 13 13 13 13 12 12 12 12 12 12 11 11 11 11 11 12 12 13 13 13 14 14 14 14 14
5 4 3 2 2 2 3 3 3 4 5 5 6 7 8 10 11 11 12 12 12 12 13 13 13 13 13 13 13 13 13 12 12 11 11 11 11 11 11 12 12 13 13 13 14 14 14 14 14
5 4 3 1 1 1 2 3 3 5 5 6 7 8 9 10 11 12 12 12 12 13 13 13 13 13 13 13 13 13 13 13 12 11 11 11 11 12 12 12 13 13 13 14 14 14 13 13 13
5 5 4 2 1 1 2 3 4 5 5 6 7 8 9 10 11 12 12 12 12 12 12 12 12 13 13 13 13 13 13 13 12 12 12 13 13 13 14 14 14 14 14 14 14 14 14 13 13
6 5 4 3 2 1 1 2 4 5 5 6 7 8 9 10 11 11 12 12 12 12 12 12 12 13 14 14 13 13 13 14 14 14 14 14 15 15 16 16 16 16 16 16 15 15 15 14 14
6 6 5 4 3 2 1 3 4 5 6 6 7 8 9 9 10 11 11 11 11 12 12 12 13 14 14 14 14 14 14 15 15 15 15 16 16 17 17 17 17 17 17 17 17 16 16 16 15
7 6 6 5 4 3 3 3 5 6 6 7 8 8 9 9 10 11 11 11 11 12 12 12 13 14 14 14 15 15 15 15 15 15 15 16 16 17 18 18 18 18 18 18 18 17 17 17 16